[[{"header":{"parameterUnit":"m.s-1","parameterCategory":1,"la1":30.2992,"la2":30.254,"lo1":-89.0895,"lo2":-89.0443,"dy":0.0025,"dx":0.0025,"nx":19,"ny":19,"refTime":"2026-05-17T03:00:00:Z","depth":0,"parameterNumber":2,"parameterNumberName":"U-component_of_WINDS"},"data":[0,0,0,-0.6316,-0.6317,-0.6353,-0.6353,-0.6402,-0.6403,0,0,0,0,0,0,0,0,0,0,0,-0.6305,-0.6305,-0.6316,-0.6317,-0.6353,-0.6353,-0.6402,-0.6403,0,0,0,0,0,0,0,0,0,0,0,-0.6305,-0.6305,-0.6305,-0.6317,-0.6353,-0.6353,-0.6402,-0.6374,0,0,0,0,0,0,0,0,0,0,-0.6339,-0.6327,-0.6305,-0.6305,-0.6317,-0.6353,-0.6353,-0.6373,-0.6376,-0.6386,0,-0.6394,0,-0.6399,-0.6406,-0.6406,0,0,0,-0.6318,-0.6325,-0.6335,-0.6306,-0.6318,-0.6353,-0.6337,-0.6375,-0.6378,-0.6391,-0.6395,-0.6396,-0.64,-0.6406,-0.6407,-0.6462,-0.6462,0,0,-0.6316,-0.6312,-0.6332,-0.6337,-0.633,-0.6336,-0.6338,-0.6377,-0.6382,-0.6395,-0.6398,-0.6401,-0.6407,-0.6407,-0.6462,-0.6462,0,0,0,-0.6309,-0.631,-0.6319,-0.6335,-0.6341,-0.6337,-0.6339,-0.638,-0.6383,-0.6398,-0.6401,-0.6407,-0.6408,-0.6461,-0.6462,-0.647,0,0,0,-0.6308,-0.6306,-0.6318,-0.6316,-0.6341,-0.6361,-0.6342,-0.638,-0.6385,-0.6401,-0.6407,-0.6408,-0.6461,-0.6462,-0.6469,-0.6474,0,0,0,-0.6303,-0.6306,-0.6311,-0.6316,-0.6331,-0.636,-0.6366,-0.6381,-0.6387,-0.6406,-0.6408,-0.6461,-0.6462,-0.6468,-0.6473,-0.6489,0,0,0,-0.6296,-0.6317,-0.6311,-0.6336,-0.6331,-0.6364,-0.6365,-0.639,-0.6408,-0.6407,-0.6461,-0.6462,-0.6468,-0.6473,-0.6488,-0.6502,-0.6507,0,0,-0.632,-0.6319,-0.6334,-0.633,-0.6363,-0.6359,-0.6394,-0.6414,-0.642,-0.6448,-0.645,-0.6469,-0.6473,-0.6489,-0.6535,-0.6539,0,0,0,-0.6341,-0.6352,-0.6361,-0.6377,-0.6393,-0.6408,-0.6423,-0.6431,-0.6455,-0.6433,-0.6479,-0.6481,-0.6491,-0.6498,-0.6501,-0.651,-0.6464,-0.6464,-0.6464,-0.637,-0.6376,-0.6402,-0.6413,-0.6429,-0.6445,-0.646,-0.6473,-0.6475,-0.6486,-0.6494,-0.6521,-0.6529,-0.6532,-0.6541,-0.6501,-0.6501,-0.6501,-0.6501,-0.6407,-0.6424,-0.6426,-0.6452,-0.6459,-0.6482,-0.6499,-0.65,-0.6524,-0.6515,-0.6523,-0.6514,-0.6536,-0.6545,-0.6502,-0.6502,-0.6502,-0.6502,-0.6502,-0.6427,-0.6437,-0.6445,-0.6471,-0.649,-0.6501,-0.6524,-0.653,-0.6536,-0.6544,-0.6556,-0.6555,-0.6558,-0.6549,-0.6549,-0.6549,-0.6549,-0.6549,-0.6549,-0.6446,-0.6455,-0.6473,-0.6492,-0.6504,-0.6521,-0.6539,-0.6552,-0.6568,-0.6571,-0.6571,-0.6573,-0.6536,-0.6527,-0.6551,-0.6551,-0.655,-0.655,-0.655,-0.6483,-0.6476,-0.6503,-0.6515,-0.654,-0.656,-0.6567,-0.6593,-0.6605,-0.6617,-0.6617,-0.6588,-0.6588,-0.6586,-0.6579,-0.6614,-0.6614,-0.6614,-0.6614,-0.6501,-0.6502,-0.6532,-0.6552,-0.6572,-0.6581,-0.6615,-0.663,-0.6645,-0.6653,-0.6649,-0.6639,-0.6636,-0.6639,-0.6635,-0.6629,-0.6676,-0.6676,-0.6676,-0.6526,-0.6528,-0.6555,-0.6567,-0.6588,-0.6606,-0.6638,-0.6663,-0.6678,-0.6679,-0.666,-0.6658,-0.6643,-0.6637,-0.6638,-0.6632,-0.6621,0,0]},{"header":{"parameterUnit":"m.s-1","parameterCategory":1,"la1":30.2992,"la2":30.254,"lo1":-89.0895,"lo2":-89.0443,"dy":0.0025,"dx":0.0025,"nx":19,"ny":19,"refTime":"2026-05-17T03:00:00:Z","depth":0,"parameterNumber":3,"parameterNumberName":"V-component_of_WINDS"},"data":[0,0,0,5.1127,5.1129,5.1204,5.1204,5.1314,5.1315,0,0,0,0,0,0,0,0,0,0,0,5.1116,5.1117,5.1127,5.1129,5.1204,5.1204,5.1314,5.1315,0,0,0,0,0,0,0,0,0,0,0,5.1116,5.1117,5.1119,5.113,5.1204,5.1204,5.1313,5.1252,0,0,0,0,0,0,0,0,0,0,5.1176,5.1178,5.1117,5.1119,5.113,5.1204,5.1204,5.1248,5.1255,5.1287,0,5.132,0,5.1319,5.1323,5.1324,0,0,0,5.1121,5.1172,5.1182,5.1119,5.1131,5.1204,5.1168,5.1252,5.126,5.1296,5.1321,5.1325,5.1321,5.1324,5.1325,5.1535,5.1536,0,0,5.1117,5.1136,5.1176,5.1188,5.1179,5.1166,5.117,5.1257,5.1284,5.1321,5.1327,5.1323,5.1325,5.1326,5.1533,5.1535,0,0,0,5.1111,5.1133,5.1141,5.1184,5.1196,5.1168,5.1173,5.128,5.1281,5.1328,5.1324,5.1326,5.1327,5.1532,5.1534,5.1618,0,0,0,5.1108,5.1129,5.1139,5.1151,5.1195,5.124,5.1196,5.1275,5.1284,5.1323,5.1326,5.1329,5.153,5.1533,5.1612,5.1654,0,0,0,5.1108,5.1129,5.1144,5.1152,5.1185,5.1238,5.1244,5.1277,5.1283,5.1324,5.1329,5.1529,5.1533,5.1607,5.1646,5.1712,0,0,0,5.1113,5.122,5.1146,5.1263,5.1185,5.129,5.1243,5.1321,5.1366,5.1327,5.1531,5.1534,5.1606,5.1641,5.1706,5.1769,5.1797,0,0,5.1258,5.1238,5.1306,5.1241,5.1364,5.1277,5.1412,5.1437,5.1424,5.1498,5.1503,5.1614,5.1645,5.171,5.1955,5.1977,0,0,0,5.1358,5.1406,5.1435,5.1479,5.15,5.1519,5.1521,5.1529,5.159,5.1467,5.1656,5.1675,5.1712,5.1741,5.176,5.1789,5.1549,5.1548,5.1548,5.1591,5.1566,5.1675,5.1659,5.1702,5.17,5.1731,5.1742,5.1708,5.1752,5.1774,5.1925,5.1959,5.1974,5.2004,5.1807,5.1807,5.1808,5.1808,5.1799,5.1861,5.1809,5.1895,5.1868,5.194,5.1941,5.1913,5.1974,5.1908,5.194,5.1867,5.1999,5.2024,5.1814,5.1813,5.1812,5.1811,5.1811,5.1946,5.1972,5.1979,5.2036,5.2082,5.2062,5.2121,5.2096,5.2072,5.2104,5.212,5.2119,5.2111,5.2114,5.2114,5.2115,5.2115,5.2116,5.2116,5.2096,5.2101,5.2154,5.2182,5.2203,5.2229,5.2226,5.2246,5.2262,5.2238,5.2238,5.2196,5.2018,5.1972,5.2124,5.2123,5.2121,5.2121,5.212,5.2312,5.2258,5.234,5.2362,5.2389,5.2433,5.2399,5.2442,5.2455,5.2484,5.2435,5.2308,5.2286,5.227,5.2232,5.2442,5.2442,5.2442,5.2442,5.2434,5.242,5.2495,5.2531,5.2562,5.2538,5.2628,5.2624,5.2613,5.2618,5.2585,5.2532,5.2518,5.2503,5.2483,5.2446,5.2706,5.2707,5.2707,5.2564,5.255,5.2633,5.262,5.2637,5.2652,5.2735,5.2775,5.2752,5.2717,5.2621,5.261,5.2525,5.2499,5.2462,5.2431,5.2363,0,0]}]]